Temp_Advection
nan nan nan nan nan nan nan nan nan nan nan nan nan nan nan nan nan nan nan nan nan nan nan nan nan nan nan nan nan nan nan nan nan nan nan nan nan nan nan nan nan nan nan nan nan nan nan nan nan nan nan nan nan nan nan nan nan nan nan nan nan nan nan nan nan nan nan nan nan
nan 4 5 5 4 3 2 2 1 1 1 0 1 1 1 1 1 1 1 1 1 1 1 1 1 1 1 1 1 1 1 1 1 1 1 1 1 1 1 1 1 1 1 1 1 1 1 1 0 0 0 0 0 0 0 1 1 0 0 0 0 0 0 0 1 1 1 1 nan
nan 5 5 5 3 2 2 1 1 1 1 1 1 1 1 1 1 1 1 1 1 1 1 1 1 1 1 1 1 1 1 1 1 1 1 1 1 1 1 1 0 0 1 1 1 1 1 1 0 0 0 0 0 0 1 1 1 0 0 0 0 0 0 0 0 1 1 0 nan
nan 5 5 4 3 2 2 1 2 1 1 1 1 1 1 1 1 1 1 1 1 1 1 1 1 1 1 1 1 1 1 1 1 1 1 1 1 1 1 1 0 0 1 1 1 1 1 1 0 0 0 0 0 0 1 1 1 0 0 0 0 0 0 0 0 1 0 0 nan
nan 4 4 4 4 3 3 2 2 2 2 1 1 1 1 1 1 1 1 1 1 1 1 1 1 1 1 1 1 1 1 1 1 1 1 1 1 1 1 0 0 1 1 1 1 1 1 0 0 0 0 0 0 0 1 1 1 0 0 0 0 0 0 0 0 0 0 0 nan
nan 4 4 4 5 4 4 3 3 2 2 1 1 1 1 1 1 1 1 1 1 1 2 1 1 1 1 1 0 1 1 1 1 1 1 1 1 1 1 0 0 1 1 1 1 1 1 0 0 0 0 0 0 1 1 1 1 0 0 0 0 0 0 0 0 0 0 0 nan
nan 4 4 4 5 5 4 3 3 2 2 1 1 1 1 1 1 1 1 1 1 1 1 1 1 1 1 1 1 1 1 1 1 1 1 1 1 1 1 1 1 1 1 1 1 1 1 0 0 0 0 0 0 1 1 1 0 0 0 0 0 0 0 0 0 0 0 0 nan
nan 3 4 4 5 4 4 4 3 2 2 1 1 1 1 1 1 1 1 1 1 1 1 1 1 1 1 0 0 0 1 1 1 1 1 1 1 1 1 0 1 1 1 1 1 1 1 0 0 0 0 0 0 0 1 1 0 0 -0 0 0 0 0 0 1 0 0 0 nan
nan 3 3 4 4 4 4 4 3 2 2 1 1 1 1 1 1 1 1 1 1 1 1 1 1 1 1 0 0 0 1 1 1 1 1 1 1 0 1 1 1 1 1 1 1 1 1 0 0 0 0 1 0 0 1 1 1 0 -0 -0 0 0 0 0 1 0 0 0 nan
nan 3 3 4 4 4 4 4 3 2 2 1 1 1 1 1 1 1 1 1 1 1 1 1 1 1 0 0 0 0 1 1 1 1 1 1 0 0 0 1 1 1 1 1 1 1 0 0 0 0 1 1 0 0 1 1 0 0 0 0 0 0 0 1 1 1 0 0 nan
nan 3 3 3 4 4 4 4 3 3 2 2 1 1 1 1 1 1 1 1 1 1 1 1 1 1 0 0 0 0 1 1 1 1 1 1 1 1 0 1 1 1 1 1 1 1 0 0 0 1 1 1 0 0 0 1 0 0 0 0 0 0 0 0 1 1 0 0 nan
nan 3 3 3 4 4 4 4 3 3 2 2 2 1 1 1 1 1 1 1 1 1 1 1 1 1 0 0 0 1 1 1 1 0 0 1 1 1 1 1 1 1 1 1 1 1 0 0 0 1 1 1 1 1 1 1 0 0 0 0 0 0 0 0 1 1 0 0 nan
nan 3 3 3 3 4 3 3 3 3 2 2 2 1 1 1 1 1 1 1 1 1 1 1 1 1 0 0 0 1 1 1 1 0 0 1 1 1 1 1 1 1 1 1 1 1 0 0 0 0 1 1 1 1 1 1 0 0 0 0 0 0 0 0 1 1 0 0 nan
nan 3 2 3 3 3 3 3 3 3 3 2 2 2 1 1 1 1 1 1 1 1 1 1 1 1 0 0 0 1 1 1 0 0 0 0 1 1 1 1 1 1 1 1 1 1 1 0 0 0 0 0 1 1 1 1 0 0 -0 0 0 0 0 0 0 0 0 0 nan
nan 2 2 3 2 2 3 3 3 3 3 2 2 2 1 1 1 1 1 1 1 1 1 1 1 1 1 1 1 1 1 1 0 -0 0 0 1 1 1 1 1 1 1 1 1 1 1 1 1 1 0 0 0 1 1 1 1 0 0 0 0 0 0 0 0 0 0 0 nan
nan 3 3 2 2 2 2 3 3 3 2 2 2 2 2 1 1 0 0 1 1 1 1 1 1 1 1 1 1 1 1 0 -0 -0 0 1 1 1 1 1 1 1 1 1 1 1 1 1 1 1 1 0 0 0 1 1 1 0 0 0 0 0 0 0 0 0 0 0 nan
nan 3 3 2 2 2 2 2 3 3 2 2 2 2 2 1 1 0 0 1 1 1 1 1 1 1 1 1 0 0 1 0 -0 -0 0 1 1 1 1 1 1 1 1 1 1 1 1 1 1 1 1 0 0 0 0 1 1 0 0 0 0 0 0 0 0 0 0 0 nan
nan 3 3 2 2 2 2 3 3 2 2 3 3 2 2 1 1 0 0 1 1 1 1 1 1 1 1 1 0 0 0 0 -0 0 0 1 1 1 1 1 1 1 1 1 1 1 1 1 1 1 1 0 0 0 0 0 0 0 0 0 0 1 1 0 0 0 0 0 nan
nan 2 2 2 2 2 3 3 3 2 3 3 3 3 2 1 1 1 1 1 1 1 1 1 1 1 1 1 0 0 0 0 0 0 0 0 0 0 1 1 1 1 1 1 1 1 1 1 1 1 1 0 0 0 0 0 0 0 0 0 0 0 0 0 0 0 0 0 nan
nan 1 1 2 3 3 3 3 3 3 3 3 3 3 2 2 1 1 1 1 1 1 1 1 1 1 1 0 0 0 0 1 1 0 0 0 0 0 1 1 1 1 1 1 1 1 1 1 1 1 1 1 0 0 0 0 0 0 0 0 0 0 0 0 0 0 1 1 nan
nan 1 2 3 3 3 3 3 3 3 3 3 3 3 2 2 1 1 1 1 1 1 1 1 1 1 0 0 0 1 1 1 1 0 0 0 0 0 0 1 1 1 1 1 1 1 1 1 1 1 1 1 0 0 0 0 0 0 0 0 0 0 0 0 0 0 1 1 nan
nan 2 3 3 3 3 3 3 3 3 3 3 3 3 2 2 1 1 1 1 1 1 1 1 1 1 1 0 1 1 1 1 0 0 0 0 0 0 0 1 1 1 1 1 1 1 1 1 1 1 1 1 0 0 0 0 0 0 0 0 -0 -0 0 0 0 0 0 1 nan
nan 2 3 3 3 3 3 3 3 2 2 2 2 2 2 2 2 1 1 1 1 1 1 1 1 1 1 1 1 1 1 1 0 -0 0 0 0 1 0 0 0 0 1 1 1 1 1 1 1 1 1 1 1 1 1 1 0 0 -0 -0 -0 0 0 0 0 0 0 1 nan
nan 2 2 3 3 3 3 3 2 2 2 2 2 2 2 2 2 2 1 1 1 1 1 1 1 1 1 1 1 1 1 1 0 0 0 0 1 1 0 -0 -0 0 1 1 1 1 1 1 1 1 1 1 1 1 1 1 0 0 -0 -0 0 0 0 -0 -0 0 0 0 nan
nan 2 2 2 2 3 3 2 2 2 2 2 2 3 2 2 2 1 1 1 1 1 1 1 1 1 1 1 1 1 1 1 0 0 0 1 1 0 0 -0 -1 -0 0 1 1 1 1 1 1 1 0 0 0 0 0 1 1 1 0 0 0 -0 -0 -0 -0 0 0 1 nan
nan 2 2 2 2 3 2 2 2 2 3 3 3 3 3 2 2 1 1 1 1 1 1 1 1 1 1 1 1 1 1 1 1 1 1 1 1 0 -0 -1 -1 -0 0 1 1 1 1 1 1 1 0 -0 -0 -0 -0 0 1 1 0 0 0 -0 -0 -1 -0 0 1 1 nan
nan 2 2 2 3 2 2 2 3 3 3 3 3 3 2 2 2 2 1 1 1 1 1 1 1 1 1 1 1 1 1 1 1 1 1 1 0 0 -0 -1 -1 -0 0 1 1 1 1 1 1 1 1 0 -0 0 0 -0 -0 0 0 0 -0 -0 -1 -1 -0 0 0 1 nan
nan 2 2 2 2 2 3 3 3 2 2 2 3 3 3 3 2 2 1 1 1 1 1 1 0 0 1 1 1 1 1 1 1 1 1 0 -0 -0 -0 -0 -0 -0 0 0 1 1 1 1 1 2 2 1 1 0 0 0 0 0 0 0 -0 -1 -1 -1 -1 -0 0 1 nan
nan 2 2 2 2 3 3 3 3 2 2 3 3 3 3 2 2 2 1 1 1 1 0 0 0 0 1 1 1 1 1 2 2 1 1 -0 -0 -0 -0 -0 -0 -0 0 0 0 1 1 1 1 2 2 2 1 0 1 1 1 0 0 -0 -0 -0 -1 -1 -1 -0 0 0 nan
nan 2 2 2 2 3 3 3 3 3 3 3 3 3 3 2 2 2 1 1 1 0 0 1 0 0 1 1 1 1 1 2 2 1 -0 -1 -0 -0 0 0 -0 0 0 0 0 0 1 1 2 2 2 2 1 1 1 1 1 0 0 -0 -0 -0 -1 -1 -0 0 0 0 nan
nan 3 2 2 2 2 3 3 4 4 3 3 2 2 2 2 2 2 1 1 1 1 1 0 0 1 1 1 1 1 2 2 1 0 -0 -0 -0 0 0 0 0 -0 -0 0 -0 0 1 1 2 2 2 2 1 1 1 1 1 0 0 -0 -0 -0 -1 -1 -0 0 0 0 nan
nan 3 3 3 2 2 3 3 4 4 3 3 3 2 2 2 2 2 2 1 1 1 1 0 0 1 1 1 1 2 2 1 0 -0 -0 -0 0 0 0 0 -0 -0 -0 -0 -0 0 1 1 1 2 2 2 1 1 1 1 1 1 0 -0 -0 -0 -0 -0 -0 -0 0 0 nan
nan 3 3 3 3 3 3 3 3 3 3 3 3 2 2 2 2 2 2 2 1 1 0 0 0 0 0 1 2 2 1 0 0 0 0 0 0 0 1 0 -0 -0 -0 -0 -0 0 1 1 1 2 2 2 1 1 1 1 1 1 0 -0 0 0 0 -0 -0 -0 -0 -0 nan
nan 3 3 4 4 3 3 2 2 3 3 3 2 2 2 2 2 2 2 1 1 1 0 0 -0 -0 1 2 2 2 0 -0 0 0 0 0 1 0 0 0 -0 -0 -0 -0 -0 0 1 1 1 1 2 2 1 1 1 1 1 0 0 -0 0 0 0 0 -0 -0 -0 -0 nan
nan 3 3 4 4 3 3 2 2 2 2 2 2 2 2 2 2 1 1 1 1 1 0 -0 -1 0 1 2 2 1 -0 -0 0 0 1 1 1 0 0 0 0 -0 -0 -0 -0 0 0 1 1 1 2 1 1 1 1 1 1 1 0 0 0 1 1 0 0 0 -0 -0 nan
nan 4 4 4 4 3 3 2 2 2 2 1 1 1 1 1 1 1 1 1 1 0 -0 -1 -1 0 1 2 1 -0 -1 -0 1 1 1 1 1 0 0 0 0 -0 -0 -0 -0 -0 0 1 1 1 1 1 0 0 1 1 1 1 1 1 1 1 1 1 0 0 -0 -0 nan
nan 4 4 4 4 3 3 3 2 2 1 1 1 1 1 1 1 1 1 1 1 0 -0 -1 -1 0 1 2 0 -0 -1 0 1 1 1 1 0 0 0 0 0 -0 0 -0 -0 -0 0 1 1 1 1 1 0 0 1 1 1 1 1 1 1 1 1 1 1 0 -0 -0 nan
nan 4 4 3 3 3 3 3 2 2 1 1 1 0 1 1 1 1 1 1 1 0 -0 -1 -1 0 1 1 0 -0 -0 1 1 1 1 1 0 0 0 0 -0 0 0 0 -0 -0 -0 0 1 1 1 1 0 0 0 1 1 1 2 1 1 1 1 1 0 -0 -0 -0 nan
nan 3 3 3 3 3 3 3 2 2 2 1 1 1 1 1 1 1 1 1 1 1 -0 -1 -1 0 1 1 0 -0 0 1 1 1 1 0 0 0 0 -0 -0 0 0 0 0 -0 -0 0 1 1 1 1 0 0 0 0 1 1 2 2 2 1 1 1 0 -0 -0 0 nan
nan 3 3 3 3 3 3 3 3 3 2 2 1 0 0 0 1 1 2 2 1 1 -0 -1 -0 1 1 1 0 -0 0 1 1 1 1 0 0 0 0 -0 -0 0 0 0 0 -0 -0 0 1 1 1 1 0 0 -0 0 1 1 2 2 2 2 1 0 -0 0 0 0 nan
nan nan nan nan nan nan nan nan nan nan nan nan nan nan nan nan nan nan nan nan nan nan nan nan nan nan nan nan nan nan nan nan nan nan nan nan nan nan nan nan nan nan nan nan nan nan nan nan nan nan nan nan nan nan nan nan nan nan nan nan nan nan nan nan nan nan nan nan nan
Wind_Speed
43 43 44 44 44 44 44 44 43 41 40 39 38 36 35 34 34 33 32 31 31 30 29 28 27 26 25 25 25 25 25 24 24 23 23 22 22 21 21 21 21 22 22 22 23 23 23 23 24 24 24 24 24 24 23 22 22 22 22 22 22 23 23 24 24 24 25 25 26
42 42 43 43 44 44 44 44 43 42 41 40 38 37 36 35 34 33 32 32 31 30 29 28 27 26 26 26 25 25 25 24 24 23 23 22 22 21 21 21 21 22 22 22 23 23 23 23 23 24 24 24 24 24 23 22 22 22 22 22 22 22 23 23 24 24 24 25 26
40 41 42 43 44 45 45 45 44 43 42 40 38 37 36 35 34 33 32 31 31 30 29 29 28 27 26 26 26 25 25 24 24 23 23 22 22 21 21 21 21 22 22 22 23 23 23 23 23 24 24 24 24 23 23 22 21 22 22 22 22 22 22 23 23 24 24 25 25
38 39 40 42 43 44 44 43 43 42 41 40 38 37 36 35 34 33 32 31 31 30 30 29 28 27 27 26 26 26 25 25 24 23 23 22 22 21 21 21 22 22 22 22 22 22 23 23 23 24 24 24 24 23 22 22 21 22 22 22 22 22 22 22 23 23 24 25 25
36 37 38 39 40 41 42 42 42 41 40 39 38 37 36 35 34 33 32 32 31 31 30 29 28 27 27 26 26 26 26 25 24 23 23 22 21 21 21 21 22 22 22 22 22 22 22 23 24 24 24 24 23 23 22 22 22 22 22 21 21 21 22 22 22 23 24 24 25
35 35 35 36 38 39 41 41 42 41 40 40 39 38 37 36 35 34 33 32 32 31 30 29 29 28 27 27 27 26 26 25 24 24 23 22 22 21 21 22 22 22 22 22 22 22 22 23 24 24 24 24 23 23 22 22 22 22 22 21 21 21 21 22 22 23 24 24 25
34 33 34 34 36 38 39 40 41 41 41 40 40 39 37 36 35 34 33 32 31 31 31 30 29 29 28 27 27 26 26 25 24 24 23 22 22 21 21 21 22 22 22 22 22 22 22 23 24 24 24 23 23 22 22 22 22 22 22 21 20 20 21 21 22 23 23 24 25
34 34 33 33 34 36 38 39 41 41 42 41 40 39 37 36 35 34 33 32 32 32 31 30 30 29 28 28 27 26 26 25 25 24 23 22 22 22 21 21 22 22 22 22 22 22 22 23 24 24 24 23 23 23 22 22 22 22 22 21 20 20 20 21 21 22 23 24 25
36 35 33 33 34 35 37 39 40 42 42 41 40 38 37 36 35 34 33 33 33 32 31 31 30 29 28 28 27 27 26 25 25 24 23 23 22 22 22 21 21 21 22 22 22 22 23 23 24 24 23 23 23 23 22 22 22 22 22 21 20 20 20 20 21 22 23 24 25
36 35 34 33 33 34 35 38 40 41 42 42 40 39 37 36 35 35 34 33 33 33 32 31 30 29 29 28 28 27 26 25 25 24 23 23 23 22 22 21 21 21 22 22 22 22 23 23 23 23 23 23 23 23 23 22 23 22 22 21 20 20 20 20 20 21 22 23 25
37 35 34 33 33 33 34 37 39 41 42 42 41 40 38 37 36 35 34 34 34 33 33 31 31 30 29 28 28 27 26 25 25 24 24 23 23 22 22 21 21 21 22 22 22 22 23 23 23 23 23 23 23 23 23 23 23 22 22 21 20 20 20 19 19 20 22 23 25
37 36 35 34 33 33 34 36 38 40 41 42 41 40 39 38 37 36 35 35 35 34 33 32 31 30 29 29 28 27 26 26 25 24 24 23 23 22 22 21 21 21 22 22 22 22 23 23 23 23 23 23 23 23 23 23 23 22 22 21 20 20 20 19 19 20 21 23 25
37 36 35 34 34 34 34 36 38 39 41 41 41 41 40 38 37 36 36 36 35 34 33 32 31 30 30 29 28 27 27 26 25 24 24 24 23 22 22 21 21 21 22 22 22 23 23 23 23 23 23 23 23 23 23 23 23 22 22 21 20 20 20 19 19 20 21 23 25
37 37 36 35 34 34 35 36 38 39 40 41 41 41 40 39 38 37 37 36 35 34 33 32 31 31 30 29 28 27 27 26 25 25 24 24 23 22 21 21 21 21 22 22 22 23 23 23 23 23 23 23 23 23 23 23 23 22 22 21 21 20 19 19 19 20 22 24 25
38 37 36 35 35 35 35 36 38 39 40 41 41 41 40 39 39 38 37 36 35 34 33 33 32 31 30 29 28 27 27 26 25 25 24 24 23 22 21 21 21 22 22 22 22 23 23 23 23 23 23 23 23 23 23 23 23 22 22 21 21 20 19 19 20 21 22 24 25
38 37 36 35 35 35 36 37 38 39 40 41 41 41 41 40 39 38 38 37 36 35 34 33 32 31 30 29 28 27 27 26 25 25 24 23 22 22 21 21 21 22 22 22 23 23 23 23 23 23 23 23 23 23 23 22 22 22 21 21 20 20 19 19 20 21 23 24 24
38 37 36 36 35 35 36 36 37 38 39 40 41 41 41 41 40 39 38 37 36 35 34 33 32 31 30 29 28 27 27 26 25 25 24 23 22 21 21 22 22 22 22 22 23 23 23 22 22 23 23 23 23 23 22 22 22 21 21 20 20 19 19 19 20 22 23 23 24
38 37 37 36 35 35 35 36 37 38 39 40 40 41 41 41 40 39 38 37 36 35 34 33 33 32 31 29 28 28 27 26 25 24 24 23 22 21 22 22 22 22 22 23 23 22 22 22 22 22 23 23 23 23 23 22 22 21 20 20 19 19 19 19 20 21 22 23 24
38 38 37 36 35 34 34 35 36 37 38 39 40 40 41 41 41 40 39 38 36 35 35 34 33 32 31 30 28 28 27 26 25 24 23 22 22 22 22 22 22 22 23 23 23 22 22 22 22 22 23 23 23 23 23 22 22 21 20 19 18 18 18 19 20 21 22 23 24
38 37 36 35 34 33 33 34 35 36 37 38 39 40 41 41 41 40 39 38 37 35 35 34 33 32 31 30 29 27 26 25 25 24 23 22 22 22 22 23 23 23 23 23 23 22 22 22 22 22 22 23 23 23 23 22 22 21 20 19 18 18 18 19 20 22 23 24 24
37 36 35 34 33 33 32 33 33 35 37 38 39 40 41 41 41 40 39 38 36 36 35 34 33 32 31 30 29 27 26 25 24 23 23 22 22 22 22 23 23 24 24 23 23 22 22 22 22 22 22 23 23 23 23 22 22 21 19 18 17 17 18 19 21 22 24 24 24
35 35 34 34 33 33 32 32 33 34 36 38 39 40 41 41 41 40 39 38 37 36 36 35 34 33 31 30 28 27 25 24 24 23 23 22 22 22 22 23 24 24 24 23 23 22 22 22 22 22 22 23 23 23 23 23 22 21 19 18 17 17 18 20 22 23 25 25 24
33 33 33 33 33 33 32 32 33 34 36 38 39 40 41 41 41 40 39 38 38 37 36 35 34 33 32 30 28 26 25 24 24 24 23 22 21 21 22 23 25 25 25 24 23 22 22 22 22 22 22 23 23 23 23 23 22 20 19 18 18 18 19 20 23 24 25 25 24
32 32 32 32 32 32 32 32 33 35 36 38 39 40 41 41 41 40 40 39 38 37 36 35 34 33 32 30 28 26 25 24 24 24 23 22 21 21 22 24 25 26 25 24 23 22 22 22 22 22 22 23 23 23 23 23 21 20 18 18 18 18 19 21 24 25 26 25 24
31 32 32 32 32 32 32 32 33 35 36 38 39 40 41 41 41 41 40 40 38 37 36 35 34 33 32 31 28 26 24 24 24 23 23 21 21 21 22 24 26 27 26 24 23 22 22 22 22 22 22 23 23 24 24 23 21 19 18 17 17 18 20 23 25 26 26 25 24
31 31 32 32 32 32 32 32 33 34 35 37 38 40 41 41 41 41 41 40 38 37 36 35 34 34 33 31 28 26 24 23 23 23 22 21 21 21 23 25 27 27 26 25 23 22 22 22 22 22 23 23 24 24 24 23 21 18 16 15 15 17 21 24 26 27 27 26 24
30 31 31 31 32 32 32 32 32 33 35 36 38 40 41 41 41 41 41 40 38 37 36 35 35 34 33 31 29 26 24 23 23 23 22 22 21 22 23 25 27 27 27 25 23 23 22 22 22 22 23 23 24 24 24 23 21 18 16 15 15 18 21 24 26 27 27 26 24
30 31 31 32 32 33 32 32 32 33 34 36 38 39 40 41 42 42 41 40 38 37 36 36 35 34 33 31 29 26 24 23 23 23 23 22 22 22 23 25 27 27 26 25 24 23 22 22 22 22 22 22 23 23 23 23 21 19 17 16 17 19 22 24 26 27 26 25 24
31 31 31 32 33 33 33 33 33 33 34 35 37 39 40 41 42 42 41 40 39 38 37 36 36 35 33 31 29 26 23 23 23 23 24 23 23 23 24 25 27 27 26 25 24 23 23 22 22 22 22 22 22 23 23 22 21 19 18 17 19 20 22 24 25 25 25 24 25
32 32 32 32 33 33 33 33 33 33 33 34 36 38 40 42 42 42 41 40 39 38 37 36 36 35 33 31 28 25 23 23 24 25 25 24 23 23 23 25 26 27 26 25 24 23 23 23 22 22 22 22 22 22 22 21 20 19 18 19 19 20 20 22 23 24 24 25 26
33 33 33 33 33 33 33 33 33 33 33 34 36 38 40 41 42 42 41 40 39 38 37 36 36 35 33 30 28 25 23 24 25 26 26 24 23 23 23 24 26 27 26 25 25 24 23 23 22 22 22 22 22 22 22 21 20 19 20 21 20 19 19 21 22 23 24 26 28
34 34 34 34 34 34 34 34 34 33 34 34 35 37 39 41 41 41 40 39 38 37 37 36 36 34 32 30 28 25 24 25 27 27 26 24 23 23 23 24 26 27 27 26 25 24 23 23 23 22 22 22 22 22 22 21 20 21 21 22 21 20 19 20 21 23 25 27 28
35 35 36 36 35 35 34 34 34 34 34 34 35 36 38 39 40 40 40 39 38 37 37 36 35 34 32 30 28 26 26 27 28 27 26 24 23 23 23 24 26 27 27 26 25 24 24 23 23 22 22 22 22 22 22 22 22 22 23 24 23 20 19 19 21 23 25 27 29
35 36 36 36 36 35 35 35 35 35 35 35 35 36 37 38 39 39 39 39 38 37 36 36 35 34 32 31 29 27 27 28 28 27 25 24 23 23 23 24 25 26 27 26 26 25 24 23 23 23 22 22 22 23 23 23 23 24 25 26 24 21 20 20 21 24 26 27 28
36 37 37 37 36 35 35 35 35 35 35 35 35 35 35 36 37 38 38 38 37 37 36 36 35 34 33 31 29 28 28 28 28 27 25 24 23 23 23 24 25 26 27 27 26 25 24 23 23 23 22 22 23 23 24 25 25 26 26 26 25 23 21 21 22 24 26 27 28
37 37 37 36 36 35 35 34 34 35 35 35 34 34 34 34 35 36 37 37 37 37 37 36 36 35 34 32 30 29 29 29 28 27 25 23 23 23 23 24 25 26 27 27 26 25 24 24 23 23 22 23 23 24 24 25 26 26 27 26 25 24 22 22 22 24 25 26 27
37 36 36 35 35 34 34 34 34 34 34 34 33 32 32 32 33 35 37 38 38 38 38 37 37 36 35 33 31 30 29 29 28 26 25 24 23 23 24 24 25 26 27 27 26 25 24 24 23 23 23 23 23 24 24 25 26 26 26 26 25 24 23 22 22 24 25 25 25
36 35 34 34 33 33 32 32 32 32 31 31 30 30 30 31 33 35 37 38 39 39 39 38 37 36 34 32 31 30 29 29 28 26 25 24 24 24 24 24 25 26 26 27 26 26 25 24 23 23 23 23 23 24 24 25 25 25 25 25 24 23 22 22 22 23 24 24 23
34 33 32 31 30 30 30 30 29 29 28 28 28 28 29 30 32 34 37 38 39 39 39 38 37 35 34 32 31 30 30 29 28 26 25 25 24 24 24 24 25 26 26 27 26 26 25 24 23 23 23 23 23 23 24 24 24 25 25 24 24 22 21 21 22 23 23 22 22
32 30 29 28 27 27 27 27 27 26 26 26 27 27 28 29 31 33 35 37 39 39 38 37 36 35 33 32 32 31 30 29 28 27 25 25 25 24 24 25 25 26 26 27 27 26 25 24 23 23 23 23 23 23 23 23 24 24 24 24 23 22 21 21 22 22 22 21 21
30 28 27 26 26 25 25 25 25 24 24 25 25 26 26 27 29 32 34 37 38 38 38 37 36 35 34 33 32 31 31 30 29 27 26 25 25 25 25 25 25 26 26 27 27 26 25 24 23 23 23 22 22 22 22 22 22 23 23 23 22 22 22 21 21 20 20 20 20
Wind_Direction
262 260 258 255 253 251 250 250 250 250 251 251 251 251 251 251 252 253 254 254 255 256 257 259 260 261 261 262 263 265 267 269 270 272 273 274 275 276 277 277 278 279 280 281 282 283 285 286 287 289 291 293 295 298 300 302 303 303 302 302 303 303 303 304 305 305 305 305 304
264 262 259 256 253 251 250 249 249 249 249 250 250 251 251 251 252 252 253 254 255 256 256 257 258 258 259 260 262 264 266 268 269 270 272 273 274 274 275 275 277 278 279 280 282 283 285 286 287 289 291 293 295 297 299 302 302 302 302 302 302 303 303 304 305 306 306 306 306
266 263 260 257 254 251 250 249 248 248 249 250 250 250 250 251 251 252 253 254 254 254 255 255 256 257 258 260 262 263 265 267 268 269 270 271 272 273 273 274 275 277 278 280 281 283 285 286 287 289 291 293 295 297 299 301 302 301 301 302 302 303 303 304 305 306 306 307 308
266 263 260 258 255 253 251 250 250 249 249 250 250 250 250 250 251 251 252 252 252 253 253 254 255 256 257 259 260 262 264 265 267 268 269 270 271 271 272 273 275 276 278 280 281 283 284 286 287 288 290 292 294 297 300 302 301 301 301 301 302 302 303 305 306 307 307 309 310
266 264 262 260 257 255 253 252 251 250 250 250 250 250 250 250 250 250 251 251 251 252 253 253 254 255 256 258 259 261 263 264 266 267 268 269 270 270 271 273 274 276 278 279 281 283 284 285 286 288 290 292 294 297 300 301 301 300 300 301 302 302 303 305 307 308 309 311 313
266 265 263 261 258 255 253 251 250 249 249 249 249 249 249 249 249 249 250 250 251 252 252 252 253 254 255 256 258 260 262 264 265 266 267 268 269 269 270 272 274 276 277 279 280 282 283 284 285 287 290 292 295 297 299 300 300 300 300 301 302 303 304 306 308 309 311 313 314
265 264 263 260 257 255 252 250 249 248 247 247 247 248 248 248 248 249 250 251 251 251 251 251 252 252 254 256 258 260 262 264 265 266 267 267 268 269 270 272 273 275 277 278 279 281 282 283 285 287 289 292 295 297 299 300 299 300 301 302 303 304 306 307 309 311 312 314 315
264 262 261 259 256 254 252 250 248 247 246 246 246 247 247 248 248 249 249 250 250 250 250 250 251 252 253 255 257 260 261 263 264 265 266 267 267 268 270 272 273 275 277 278 279 280 281 283 285 287 290 292 295 297 299 299 299 300 302 303 304 305 307 308 310 311 312 314 314
264 262 260 258 255 253 250 248 247 246 246 246 246 247 247 247 248 248 248 248 249 249 249 249 250 251 253 254 257 259 261 262 263 264 265 266 267 268 270 272 274 275 276 278 279 280 281 283 285 287 290 292 295 297 298 299 299 301 302 304 305 306 307 308 310 311 312 313 313
265 264 261 258 255 252 249 247 246 245 245 245 245 246 246 246 247 247 247 248 248 248 248 248 249 250 252 254 256 258 260 262 262 263 264 265 266 268 270 272 273 275 276 277 278 279 281 282 284 287 290 292 294 296 297 299 299 301 302 304 305 306 307 308 310 311 311 311 310
267 265 263 260 256 253 249 246 245 244 244 244 244 244 245 245 245 246 246 247 247 247 247 247 248 249 251 253 256 258 260 261 262 262 264 265 266 268 270 272 273 275 276 277 278 279 280 282 285 287 290 292 294 295 297 298 299 301 302 304 305 305 306 308 309 310 310 309 308
268 267 264 261 258 254 250 246 244 243 242 242 242 243 243 244 245 245 246 246 246 246 247 247 247 248 250 253 255 257 259 260 261 262 263 264 266 267 269 271 273 275 276 276 277 278 280 282 285 287 289 291 293 295 297 298 299 300 301 302 303 304 305 307 309 309 308 307 305
269 267 265 262 258 254 250 246 244 242 242 241 241 242 243 243 244 245 245 245 246 246 246 246 246 248 249 252 254 256 258 259 260 261 262 264 265 267 269 271 273 274 275 276 277 278 280 282 284 287 289 291 293 295 296 298 298 299 300 301 302 302 303 305 307 307 306 304 303
269 267 264 262 258 254 250 247 244 242 241 240 240 241 242 243 243 244 245 245 246 246 245 245 246 247 249 251 253 255 257 258 259 260 262 264 265 267 269 271 273 274 275 276 277 278 280 282 284 287 289 291 293 294 296 297 298 299 299 300 300 301 302 304 305 305 303 302 302
268 266 264 262 258 254 251 247 244 241 240 239 239 240 241 242 243 244 244 245 245 245 245 244 245 246 248 250 252 254 256 257 258 260 262 263 265 267 269 271 272 273 274 275 276 278 280 282 284 286 289 291 293 294 295 296 297 298 298 299 299 300 301 303 303 303 302 301 302
268 267 265 262 258 255 251 247 244 242 240 238 238 238 240 241 242 243 244 245 245 244 244 244 244 245 247 249 251 253 255 256 258 259 261 263 265 267 270 271 272 273 274 275 276 278 279 282 284 286 288 290 292 294 295 295 296 296 297 297 298 299 301 302 303 302 301 302 303
269 268 265 262 259 255 252 248 245 242 240 238 237 237 238 240 241 242 243 244 244 244 243 243 244 244 246 247 249 252 254 255 257 259 261 263 266 267 269 270 271 272 273 274 276 277 279 281 284 286 288 290 291 293 294 295 295 295 295 296 297 298 300 302 302 302 302 303 304
271 269 267 264 261 258 254 250 246 243 241 239 237 237 238 239 240 242 243 244 244 243 243 243 243 244 245 247 249 251 253 255 257 259 261 263 265 267 269 270 271 272 273 274 275 277 279 281 283 285 287 289 291 292 293 294 294 294 294 295 296 297 299 301 302 303 304 305 305
273 271 269 267 264 260 256 252 248 245 242 239 238 237 237 238 240 241 242 243 243 243 242 242 242 242 244 246 248 250 252 254 256 258 261 263 265 267 269 270 271 272 272 273 275 277 279 281 283 285 287 289 290 292 292 293 293 293 293 293 294 296 299 302 304 306 307 307 306
275 274 272 270 268 264 260 254 250 246 243 240 238 237 237 238 239 240 241 242 243 242 242 241 241 241 243 245 247 249 251 254 256 258 260 262 265 267 270 271 271 272 272 273 274 276 278 281 283 285 287 289 290 291 292 292 292 292 292 291 292 295 299 305 309 311 310 308 306
278 277 276 274 271 267 263 257 252 247 244 241 238 237 237 237 238 239 241 242 242 241 240 239 239 240 241 243 245 248 250 253 255 257 258 260 264 267 270 271 271 271 271 272 274 276 278 280 283 285 287 288 289 290 291 291 290 290 289 287 289 294 301 308 313 313 311 308 306
282 281 280 277 274 270 265 260 254 248 244 241 239 237 236 237 238 239 240 241 241 240 239 238 238 239 241 242 244 246 249 252 254 256 258 260 263 267 270 271 271 271 271 272 274 276 278 280 282 285 286 288 289 289 289 289 289 287 284 282 285 293 302 311 314 313 310 307 306
285 283 281 279 275 271 267 261 255 249 245 241 239 237 236 236 237 238 239 239 239 239 238 237 237 238 240 241 243 244 247 250 253 255 257 260 263 267 270 272 272 271 271 272 273 275 278 280 282 284 286 288 288 288 287 286 285 283 280 280 284 292 303 312 314 311 308 306 307
286 284 282 279 276 272 268 262 256 250 245 241 239 237 236 236 236 237 238 238 238 238 237 236 236 237 239 240 241 242 245 248 251 254 256 259 263 268 271 272 272 272 271 272 273 275 277 280 282 284 285 286 286 286 284 283 281 280 280 282 288 298 308 315 313 309 305 306 307
286 284 282 279 277 273 269 263 257 252 247 243 239 237 236 235 236 236 237 237 237 237 236 235 235 236 237 238 239 240 243 247 250 253 255 258 262 267 270 271 272 272 272 272 273 275 277 280 283 285 286 286 285 284 283 282 281 281 282 286 296 306 313 313 309 305 305 306 307
288 285 282 280 278 274 270 265 260 255 249 244 241 238 236 235 235 236 236 237 237 236 235 234 234 235 236 237 237 238 241 245 249 252 254 257 261 265 268 270 271 272 272 272 274 275 277 280 283 285 287 287 287 286 285 285 284 283 284 289 300 309 310 307 304 303 303 305 306
289 287 284 282 279 275 271 268 263 257 252 246 242 239 236 235 235 235 236 236 236 236 234 234 234 234 235 236 236 237 240 244 247 250 253 256 260 264 267 269 270 271 272 272 274 275 277 279 282 284 286 287 287 287 286 286 285 282 282 288 299 304 304 301 300 300 301 303 306
293 290 287 284 280 277 274 270 265 259 254 248 244 240 237 236 235 235 235 236 235 235 234 233 233 234 234 235 235 235 238 242 246 248 251 255 258 262 265 267 269 271 272 272 273 275 277 279 281 283 284 285 284 284 283 282 281 281 282 288 295 297 296 296 296 298 300 303 307
296 293 290 286 283 280 276 272 267 262 257 251 246 242 239 237 236 235 235 235 235 234 233 232 233 233 234 234 234 234 236 240 244 247 250 253 256 259 263 266 269 270 271 272 273 274 276 278 281 283 283 283 281 280 279 278 279 280 282 285 287 288 289 291 294 296 300 305 310
299 295 292 289 286 283 279 274 270 266 260 255 249 244 240 238 236 235 235 234 234 234 233 233 233 233 233 234 233 233 234 238 242 246 250 252 255 258 261 265 268 270 271 271 272 274 276 278 281 283 283 282 280 278 276 275 275 276 277 276 276 278 283 288 293 297 301 306 310
300 297 294 291 288 284 281 277 273 268 263 257 252 247 242 239 237 235 235 234 234 234 234 234 233 234 234 234 232 232 233 237 242 246 250 252 254 257 260 264 268 270 271 271 271 273 275 278 281 283 283 282 279 276 273 271 270 270 270 270 270 273 280 288 293 298 302 306 309
302 299 296 293 289 286 282 278 274 269 265 260 254 249 245 241 238 237 235 235 235 234 234 234 233 234 233 233 231 230 232 237 243 247 250 252 253 255 258 262 266 268 270 270 271 273 275 278 280 282 282 281 277 274 270 268 266 266 266 266 266 271 279 288 293 298 302 306 309
303 300 297 294 291 287 283 279 275 271 266 262 257 253 248 244 241 238 236 235 235 235 235 234 234 234 233 232 230 230 232 238 244 248 250 251 252 253 256 261 264 267 269 270 271 272 274 277 279 281 282 280 277 273 269 266 263 262 262 262 264 268 276 285 292 297 301 305 308
304 300 298 295 292 288 284 280 276 272 268 264 260 256 251 247 243 240 237 236 235 235 236 236 235 235 234 232 230 230 233 239 245 248 249 250 250 252 255 259 263 266 268 269 270 271 273 276 278 280 281 280 276 272 268 264 261 259 259 261 262 266 272 280 288 294 300 304 308
304 300 298 295 292 288 285 281 278 274 271 267 263 259 254 249 245 241 238 236 236 236 236 236 235 235 233 231 229 230 234 240 245 247 248 248 249 251 254 257 262 265 267 269 269 271 272 275 278 280 280 279 276 273 269 266 263 262 261 262 263 265 269 277 285 292 298 303 307
303 300 298 295 293 290 286 283 280 277 274 270 267 262 257 252 247 242 238 236 235 235 235 235 234 233 231 229 228 230 235 241 245 247 247 247 247 249 252 255 260 264 266 268 269 270 272 274 277 279 280 279 277 274 271 268 267 266 266 265 265 266 269 276 285 292 297 302 306
301 299 298 296 294 292 289 286 284 280 277 274 271 266 260 254 247 241 237 235 234 234 234 234 233 232 230 228 228 231 236 241 245 247 247 245 246 247 249 253 258 262 265 267 269 270 272 274 276 278 279 279 278 276 273 271 269 269 268 267 267 267 271 277 285 291 296 301 306
300 298 298 297 296 295 293 290 287 283 281 278 273 267 261 253 246 240 236 234 233 232 232 233 232 231 230 228 228 231 236 242 245 246 245 244 244 245 248 251 256 260 264 266 268 269 271 273 275 277 278 278 278 277 274 272 270 269 269 268 268 268 272 278 284 290 294 299 305
300 299 299 299 298 297 294 291 288 285 282 278 273 266 259 252 245 239 235 233 232 232 232 232 232 231 229 228 228 231 236 241 244 245 244 243 243 243 246 250 254 258 262 265 267 269 270 272 274 276 277 278 278 277 275 273 271 270 269 269 268 268 271 275 281 286 293 300 306
301 301 300 299 297 295 292 290 288 285 281 276 270 264 258 252 246 240 236 233 232 231 232 232 232 230 228 227 228 231 236 240 243 244 244 243 242 242 245 249 253 257 261 265 267 268 270 271 273 275 277 277 278 277 275 273 272 271 270 269 268 268 270 274 279 286 294 301 305
301 299 297 295 293 291 290 289 288 284 279 274 268 263 258 252 246 241 236 233 231 230 230 231 230 229 227 226 227 231 235 240 243 244 244 243 241 242 244 247 252 257 261 264 267 268 269 270 272 274 276 277 277 276 275 274 272 271 271 270 270 270 272 277 284 291 297 300 300
Height
1475 1476 1477 1478 1479 1480 1481 1482 1483 1484 1485 1486 1486 1487 1488 1488 1488 1489 1490 1490 1491 1491 1491 1492 1492 1493 1493 1492 1492 1491 1491 1491 1491 1490 1490 1490 1489 1489 1489 1489 1488 1488 1488 1488 1487 1487 1486 1486 1485 1484 1483 1483 1482 1482 1481 1481 1480 1479 1478 1477 1476 1476 1475 1474 1473 1472 1472 1471 1470
1472 1473 1474 1476 1476 1477 1478 1479 1480 1481 1482 1482 1484 1485 1485 1486 1486 1487 1487 1488 1488 1489 1490 1490 1491 1491 1491 1490 1490 1490 1489 1489 1489 1489 1488 1488 1487 1487 1487 1487 1487 1486 1486 1486 1486 1485 1485 1484 1483 1482 1481 1481 1481 1480 1480 1479 1478 1477 1476 1475 1475 1474 1473 1472 1471 1471 1470 1469 1468
1469 1470 1471 1472 1473 1474 1475 1476 1476 1478 1479 1480 1481 1482 1483 1483 1484 1484 1485 1486 1486 1487 1487 1488 1488 1488 1488 1488 1488 1488 1487 1487 1487 1487 1486 1486 1486 1486 1485 1485 1485 1485 1484 1484 1484 1483 1483 1482 1481 1481 1480 1479 1479 1478 1478 1477 1476 1476 1474 1473 1473 1472 1471 1470 1470 1469 1468 1467 1466
1466 1467 1468 1469 1470 1470 1471 1472 1474 1475 1476 1478 1479 1480 1480 1481 1481 1482 1483 1483 1484 1484 1485 1485 1486 1486 1486 1486 1486 1486 1486 1485 1485 1485 1484 1484 1484 1484 1483 1483 1483 1483 1482 1482 1482 1481 1481 1480 1479 1479 1478 1477 1477 1476 1476 1476 1475 1474 1472 1471 1471 1470 1469 1468 1468 1467 1466 1465 1464
1463 1464 1465 1465 1466 1467 1469 1470 1471 1473 1474 1475 1476 1477 1477 1478 1479 1480 1480 1481 1481 1482 1482 1483 1484 1484 1484 1484 1483 1483 1483 1483 1483 1483 1482 1482 1482 1481 1481 1481 1481 1481 1480 1480 1480 1479 1479 1478 1477 1477 1476 1476 1475 1475 1474 1474 1473 1471 1471 1470 1469 1468 1467 1467 1466 1465 1464 1463 1462
1460 1461 1462 1463 1464 1465 1466 1467 1469 1470 1471 1472 1473 1474 1475 1475 1476 1477 1477 1478 1479 1480 1480 1481 1481 1481 1481 1481 1481 1481 1481 1481 1481 1481 1480 1480 1480 1480 1479 1479 1479 1479 1478 1478 1478 1477 1477 1476 1475 1475 1474 1474 1473 1473 1472 1472 1471 1470 1469 1468 1467 1466 1466 1465 1464 1463 1462 1461 1461
1457 1458 1459 1460 1461 1462 1463 1464 1466 1467 1468 1469 1470 1471 1471 1472 1473 1474 1475 1476 1476 1477 1478 1478 1478 1479 1479 1479 1479 1479 1479 1479 1479 1479 1478 1478 1478 1477 1477 1477 1477 1477 1476 1476 1476 1475 1475 1474 1473 1473 1472 1472 1471 1471 1471 1470 1469 1468 1467 1466 1465 1465 1464 1463 1462 1461 1461 1460 1459
1454 1455 1456 1457 1458 1459 1460 1461 1463 1464 1465 1466 1466 1467 1469 1470 1471 1471 1472 1473 1474 1474 1475 1476 1476 1476 1476 1477 1477 1477 1477 1477 1476 1476 1476 1476 1476 1476 1475 1475 1475 1475 1475 1474 1474 1473 1473 1472 1471 1471 1470 1470 1469 1469 1469 1468 1467 1466 1465 1464 1463 1463 1462 1461 1461 1460 1459 1458 1457
1451 1452 1453 1454 1455 1456 1457 1458 1460 1460 1461 1462 1463 1465 1466 1467 1468 1469 1470 1470 1471 1471 1472 1473 1473 1474 1474 1474 1474 1475 1475 1475 1474 1474 1474 1474 1474 1473 1473 1473 1473 1473 1472 1472 1472 1471 1471 1470 1469 1469 1468 1468 1467 1467 1466 1466 1465 1464 1463 1462 1461 1461 1460 1460 1459 1458 1457 1456 1455
1448 1449 1451 1451 1452 1453 1455 1456 1456 1457 1458 1459 1461 1462 1464 1465 1465 1466 1466 1467 1468 1469 1469 1470 1471 1471 1471 1472 1472 1472 1472 1472 1472 1472 1472 1471 1471 1471 1471 1471 1471 1471 1471 1470 1470 1469 1469 1468 1467 1467 1466 1466 1466 1465 1464 1464 1463 1462 1461 1460 1459 1459 1458 1458 1457 1456 1455 1454 1453
1446 1447 1448 1449 1450 1451 1452 1452 1453 1454 1455 1456 1458 1459 1460 1461 1462 1463 1464 1465 1465 1466 1466 1467 1468 1469 1469 1469 1470 1470 1470 1470 1470 1470 1470 1469 1469 1469 1469 1469 1469 1469 1469 1468 1468 1467 1466 1466 1466 1465 1465 1464 1464 1463 1462 1462 1461 1460 1459 1458 1458 1457 1456 1456 1456 1455 1454 1452 1451
1443 1444 1445 1446 1447 1448 1449 1449 1450 1451 1452 1453 1454 1456 1457 1458 1459 1460 1461 1462 1462 1463 1464 1465 1466 1466 1466 1467 1467 1467 1468 1468 1467 1467 1467 1467 1467 1467 1467 1467 1467 1467 1467 1466 1466 1465 1465 1464 1463 1463 1463 1462 1462 1461 1460 1460 1459 1458 1457 1456 1456 1455 1455 1454 1454 1453 1452 1451 1449
1441 1441 1442 1443 1444 1445 1446 1446 1446 1447 1448 1450 1451 1453 1454 1455 1456 1458 1458 1459 1459 1460 1461 1462 1463 1463 1464 1464 1465 1465 1465 1465 1465 1465 1465 1465 1465 1465 1465 1465 1465 1465 1465 1464 1464 1463 1463 1462 1461 1461 1461 1460 1460 1459 1459 1458 1457 1456 1455 1455 1454 1453 1453 1452 1452 1451 1450 1449 1448
1438 1438 1439 1440 1441 1442 1442 1443 1443 1444 1445 1446 1448 1450 1451 1453 1454 1455 1455 1456 1457 1458 1459 1459 1460 1461 1461 1462 1462 1463 1463 1463 1463 1463 1463 1463 1463 1463 1463 1463 1463 1463 1463 1462 1462 1461 1461 1460 1460 1459 1459 1458 1458 1457 1457 1456 1455 1454 1453 1453 1452 1451 1451 1451 1450 1449 1448 1447 1446
1435 1435 1436 1437 1438 1438 1439 1440 1440 1441 1442 1443 1445 1447 1448 1450 1451 1451 1452 1453 1454 1456 1456 1457 1457 1458 1459 1459 1460 1460 1461 1461 1461 1461 1461 1461 1461 1461 1461 1461 1461 1461 1461 1460 1460 1459 1459 1458 1458 1457 1457 1456 1456 1455 1455 1454 1453 1452 1451 1451 1450 1450 1449 1449 1448 1447 1446 1445 1444
1431 1432 1433 1434 1435 1435 1436 1436 1437 1438 1439 1440 1442 1444 1446 1446 1448 1449 1450 1451 1452 1453 1453 1454 1455 1455 1456 1457 1457 1458 1458 1458 1458 1459 1459 1459 1459 1459 1459 1459 1459 1459 1459 1458 1458 1457 1457 1456 1456 1455 1455 1454 1454 1453 1453 1452 1451 1451 1450 1449 1448 1448 1447 1446 1446 1445 1444 1443 1442
1428 1429 1430 1431 1431 1432 1432 1433 1434 1435 1436 1437 1439 1441 1442 1443 1444 1446 1446 1448 1449 1450 1451 1451 1452 1453 1453 1454 1455 1455 1456 1456 1456 1456 1456 1457 1457 1457 1457 1457 1457 1457 1456 1456 1456 1455 1455 1454 1454 1453 1453 1452 1451 1451 1451 1450 1450 1449 1448 1447 1446 1446 1445 1445 1444 1443 1442 1441 1440
1425 1426 1427 1427 1428 1429 1430 1431 1431 1432 1433 1435 1436 1438 1439 1440 1441 1442 1444 1445 1446 1447 1448 1449 1450 1450 1451 1451 1452 1453 1453 1454 1454 1454 1455 1455 1455 1455 1455 1455 1455 1455 1455 1454 1454 1453 1453 1452 1452 1451 1451 1450 1450 1449 1449 1448 1448 1447 1446 1446 1445 1444 1444 1443 1442 1441 1440 1439 1438
1423 1423 1424 1424 1425 1426 1427 1428 1429 1430 1431 1432 1433 1435 1436 1437 1438 1439 1441 1441 1443 1444 1445 1446 1447 1447 1448 1449 1449 1450 1451 1451 1452 1452 1453 1453 1453 1453 1453 1453 1453 1453 1452 1452 1451 1451 1451 1450 1450 1449 1449 1448 1448 1447 1447 1446 1446 1445 1444 1444 1443 1443 1442 1441 1441 1440 1438 1437 1436
1420 1421 1421 1422 1423 1424 1424 1425 1426 1427 1428 1429 1430 1431 1432 1434 1435 1436 1437 1438 1440 1441 1442 1443 1444 1445 1445 1446 1447 1447 1448 1449 1450 1450 1451 1451 1451 1451 1451 1451 1451 1451 1451 1450 1450 1449 1449 1448 1448 1447 1447 1446 1446 1446 1445 1444 1444 1443 1442 1442 1441 1441 1440 1439 1438 1437 1436 1436 1435
1417 1418 1418 1419 1420 1421 1422 1423 1424 1425 1426 1426 1427 1428 1429 1431 1432 1433 1434 1436 1437 1438 1439 1440 1441 1441 1442 1443 1444 1445 1446 1447 1447 1448 1448 1449 1449 1449 1449 1449 1449 1449 1448 1448 1447 1447 1447 1446 1446 1446 1445 1445 1444 1444 1443 1442 1442 1441 1441 1440 1440 1439 1438 1437 1436 1436 1435 1434 1433
1415 1416 1416 1417 1417 1418 1419 1420 1421 1422 1422 1423 1424 1425 1426 1427 1428 1430 1431 1433 1434 1435 1436 1437 1438 1439 1440 1441 1441 1442 1443 1444 1445 1446 1446 1446 1446 1446 1447 1447 1447 1446 1446 1446 1446 1445 1445 1444 1444 1444 1443 1443 1442 1442 1441 1441 1440 1439 1439 1438 1438 1437 1436 1435 1434 1434 1433 1432 1431
1413 1413 1414 1414 1415 1416 1416 1417 1418 1418 1419 1420 1421 1422 1423 1424 1426 1427 1429 1430 1431 1431 1433 1434 1435 1436 1437 1438 1439 1440 1441 1442 1443 1443 1444 1444 1444 1444 1445 1445 1445 1444 1444 1444 1443 1443 1443 1442 1442 1442 1441 1441 1440 1440 1439 1439 1438 1438 1437 1436 1436 1435 1434 1433 1432 1431 1431 1430 1429
1411 1411 1411 1411 1412 1413 1413 1414 1415 1415 1416 1416 1417 1419 1420 1421 1423 1424 1426 1426 1427 1429 1430 1431 1433 1434 1435 1436 1436 1437 1438 1439 1440 1441 1441 1442 1442 1442 1442 1442 1442 1442 1442 1441 1441 1441 1441 1440 1440 1440 1439 1439 1438 1438 1437 1437 1436 1436 1435 1434 1433 1432 1431 1431 1430 1430 1429 1428 1427
1408 1409 1409 1409 1410 1410 1411 1411 1411 1412 1413 1414 1415 1416 1417 1419 1420 1421 1422 1423 1425 1426 1428 1429 1430 1431 1432 1433 1434 1435 1436 1437 1438 1439 1439 1439 1440 1440 1440 1440 1440 1440 1440 1440 1439 1439 1439 1438 1438 1437 1437 1437 1436 1436 1435 1435 1434 1434 1433 1432 1431 1430 1429 1429 1429 1428 1427 1426 1425
1406 1406 1406 1407 1407 1407 1408 1408 1409 1409 1410 1411 1412 1413 1415 1416 1417 1418 1420 1421 1422 1424 1425 1426 1427 1428 1429 1430 1431 1432 1433 1435 1436 1436 1437 1437 1437 1437 1437 1437 1437 1437 1437 1437 1437 1437 1437 1436 1436 1435 1435 1434 1434 1433 1432 1432 1432 1432 1431 1430 1429 1429 1428 1428 1427 1426 1426 1425 1424
1405 1404 1404 1405 1405 1405 1405 1406 1406 1407 1408 1409 1410 1411 1412 1413 1415 1416 1417 1418 1420 1421 1423 1424 1425 1426 1427 1428 1429 1430 1431 1432 1433 1434 1434 1434 1435 1435 1435 1435 1435 1435 1435 1436 1435 1435 1435 1434 1434 1434 1433 1432 1431 1431 1431 1430 1430 1430 1429 1428 1428 1427 1427 1426 1426 1425 1424 1423 1422
1403 1403 1403 1403 1403 1402 1403 1404 1404 1405 1405 1406 1407 1408 1410 1411 1412 1413 1415 1416 1418 1419 1420 1421 1422 1423 1424 1425 1426 1427 1429 1430 1431 1431 1432 1432 1432 1432 1432 1433 1433 1433 1433 1433 1433 1433 1433 1432 1432 1432 1431 1431 1430 1429 1429 1428 1428 1428 1427 1427 1426 1426 1426 1425 1424 1423 1421 1421 1420
1401 1401 1401 1401 1400 1400 1401 1401 1401 1402 1403 1404 1405 1406 1407 1408 1409 1411 1412 1414 1415 1416 1417 1418 1420 1421 1421 1422 1424 1426 1427 1428 1428 1429 1429 1429 1430 1430 1430 1430 1431 1431 1431 1431 1431 1431 1431 1430 1430 1430 1429 1429 1428 1427 1427 1426 1426 1426 1426 1425 1425 1425 1424 1423 1422 1421 1420 1419 1418
1399 1399 1398 1398 1398 1398 1398 1398 1399 1400 1401 1401 1402 1403 1404 1405 1406 1408 1410 1411 1413 1414 1415 1416 1417 1418 1419 1421 1422 1423 1425 1425 1426 1426 1426 1426 1427 1427 1428 1428 1428 1429 1429 1429 1429 1429 1428 1428 1428 1427 1427 1427 1426 1426 1425 1425 1424 1424 1424 1424 1423 1422 1422 1421 1420 1419 1418 1417 1416
1396 1396 1396 1396 1395 1395 1395 1396 1396 1397 1398 1399 1400 1401 1401 1402 1404 1406 1407 1409 1411 1412 1414 1415 1415 1416 1418 1419 1421 1421 1422 1423 1423 1423 1424 1424 1425 1425 1426 1426 1426 1426 1427 1427 1427 1427 1426 1426 1426 1426 1425 1425 1424 1424 1423 1423 1423 1422 1422 1421 1421 1420 1420 1419 1418 1417 1416 1415 1414
1394 1393 1393 1393 1393 1393 1393 1394 1394 1395 1396 1396 1397 1398 1399 1400 1402 1404 1406 1408 1410 1411 1412 1412 1414 1415 1416 1417 1418 1419 1420 1420 1420 1421 1421 1422 1422 1423 1423 1423 1424 1424 1425 1425 1425 1425 1424 1424 1424 1423 1423 1423 1422 1422 1421 1421 1421 1421 1420 1420 1419 1418 1418 1417 1416 1415 1414 1413 1412
1392 1391 1391 1390 1390 1391 1391 1391 1392 1392 1393 1394 1395 1396 1396 1398 1400 1402 1404 1406 1408 1409 1410 1411 1412 1413 1415 1416 1416 1417 1417 1417 1418 1418 1419 1420 1420 1420 1421 1421 1421 1422 1422 1423 1422 1422 1422 1422 1421 1421 1421 1421 1420 1420 1419 1419 1419 1418 1418 1417 1417 1416 1416 1416 1415 1413 1412 1411 1410
1390 1389 1388 1388 1388 1389 1389 1389 1390 1390 1391 1391 1392 1393 1395 1396 1398 1400 1402 1404 1406 1407 1408 1409 1411 1412 1413 1413 1414 1414 1414 1415 1416 1416 1417 1417 1418 1418 1418 1419 1419 1420 1420 1420 1420 1420 1420 1420 1419 1419 1419 1419 1418 1417 1417 1416 1416 1416 1416 1415 1415 1414 1414 1414 1413 1412 1411 1410 1409
1388 1387 1386 1386 1386 1387 1387 1387 1388 1388 1389 1389 1390 1391 1393 1394 1396 1398 1400 1402 1404 1405 1406 1407 1408 1409 1410 1411 1411 1411 1412 1413 1413 1414 1414 1415 1415 1416 1416 1416 1417 1417 1418 1418 1418 1418 1418 1417 1417 1417 1417 1416 1416 1415 1415 1414 1414 1413 1413 1413 1412 1412 1412 1411 1411 1410 1409 1408 1407
1386 1385 1385 1385 1385 1385 1385 1386 1386 1386 1387 1387 1388 1389 1391 1392 1394 1396 1398 1400 1401 1402 1403 1404 1405 1406 1406 1407 1408 1409 1410 1410 1411 1411 1412 1412 1413 1413 1413 1414 1414 1415 1416 1416 1416 1416 1416 1415 1415 1415 1415 1414 1414 1413 1413 1412 1411 1411 1411 1411 1411 1410 1410 1410 1409 1408 1407 1406 1406
1384 1383 1383 1383 1383 1383 1383 1384 1384 1384 1384 1385 1386 1387 1388 1389 1391 1392 1394 1395 1396 1397 1399 1400 1401 1402 1403 1404 1406 1406 1407 1408 1409 1409 1409 1410 1410 1411 1411 1411 1412 1412 1413 1413 1413 1413 1413 1413 1413 1413 1412 1412 1411 1411 1411 1410 1410 1409 1409 1409 1408 1408 1408 1408 1407 1406 1406 1405 1404
1381 1381 1381 1381 1381 1381 1381 1381 1381 1381 1381 1381 1382 1383 1384 1385 1386 1388 1389 1391 1392 1393 1395 1396 1398 1399 1401 1402 1403 1404 1405 1406 1406 1406 1407 1407 1408 1408 1409 1409 1410 1410 1411 1411 1411 1411 1411 1411 1411 1411 1411 1410 1409 1409 1408 1408 1407 1407 1407 1406 1406 1406 1406 1406 1406 1405 1404 1403 1402
1379 1379 1379 1379 1379 1379 1379 1378 1378 1377 1378 1378 1378 1379 1380 1381 1382 1384 1385 1387 1388 1390 1391 1393 1395 1397 1399 1400 1401 1401 1402 1403 1403 1404 1404 1405 1405 1406 1406 1407 1407 1408 1408 1409 1409 1409 1409 1409 1409 1409 1409 1408 1407 1407 1406 1406 1406 1405 1405 1405 1405 1404 1404 1404 1404 1403 1402 1401 1401
1377 1377 1377 1376 1376 1376 1375 1375 1374 1374 1374 1375 1375 1376 1376 1378 1379 1381 1382 1384 1385 1387 1389 1391 1393 1395 1397 1398 1398 1399 1400 1400 1401 1401 1402 1402 1403 1404 1404 1404 1405 1405 1406 1406 1406 1407 1407 1407 1407 1407 1406 1406 1406 1405 1405 1404 1403 1403 1402 1402 1402 1402 1402 1402 1402 1401 1400 1400 1399
1374 1374 1374 1373 1372 1372 1371 1371 1371 1371 1371 1371 1372 1372 1374 1375 1377 1378 1379 1381 1382 1384 1386 1388 1391 1392 1394 1395 1395 1396 1397 1398 1398 1399 1400 1400 1401 1401 1402 1402 1402 1403 1403 1404 1404 1405 1405 1405 1405 1405 1405 1404 1404 1403 1403 1402 1401 1401 1401 1401 1400 1400 1400 1400 1400 1399 1399 1398 1397